Location: Cassano d�Adda
(45.5333°N, 9.5167°E)
Time: 18:46:35
(UTC+00:00)

CSL-04 Debris - Pass Details

Date: 08 December 2019
Orbit: 827 x 848 km, 99.0° (Epoch: 29 January)

Event Time Altitude Azimuth Distance (km) Brightness Sun altitude
Rises 17:10:34 0° 145° (SE) 3,392 7.2 -15.5°
Reaches altitude 10° 17:13:01 10° 139° (SE) 2,458 6.4 -15.9°
Maximum altitude 17:18:10 45° 68° (ENE) 1,129 4.4 -16.7°
Drops below altitude 10° 17:23:20 10° 357° (N) 2,461 6.5 -17.6°
Sets 17:25:47 0° 351° (N) 3,396 7.3 -18.0°
